User: anonymous   Login
Location: Vancouver
(49.2500°N, 123.1330°W)
Time: 03:17:51
(UTC-07:00)
Language:

Cosmos 676 Rocket - Orbit

View from above orbital plane
View from above orbital plane
View from above satellite
View from above satellite

Ground track
Ground track

The orbit data is extracted from the following two-line orbital elements,

1  7434U 74071B   17174.63076097 -.00000047 +00000-0 -70835-5 0  9996
2  7434 074.0446 202.1941 0019546 112.5298 247.7926 14.36634803237633
Epoch (UTC): 23 June 2017 15:08:17
Eccentricity: 0.0019546
inclination: 74.0446°
perigee height: 755 km
apogee height: 783 km
right ascension of ascending node: 202.1941°
argument of perigee: 112.5298°
revolutions per day: 14.36634803
mean anomaly at epoch: 247.7926°
orbit number at epoch: 23763

The dashed part of the orbit path shows where the satellite is in the earth's shadow,  

DLR